Cosmos 2056 Rocket - Orbit

View from above orbital plane
View from above orbital plane
View from above satellite
View from above satellite

Ground track
Ground track

The orbit data is extracted from the following two-line orbital elements,

1 20433U 90004B   13140.13424256  .00000189  00000-0  74364-4 0  4420
2 20433 074.0362 208.8149 0042078 339.5737 110.8532 14.35432628221492
Epoch (UTC): 20 May 2013 03:13:18
Eccentricity: 0.0042078
inclination: 74.0362°
perigee height: 743 km
apogee height: 804 km
right ascension of ascending node: 208.8149°
argument of perigee: 339.5737°
revolutions per day: 14.35432628
mean anomaly at epoch: 110.8532°
orbit number at epoch: 22149

The dashed part of the orbit path shows where the satellite is in the earth's shadow,  

Developed and maintained by Chris Peat, Heavens-Above GmbH. Please read the updated FAQ before sending e-mail. Imprint. DLR